,,PA_Meas_PMT16A,,PR_Meas_QMR101_102,,RH_Meas_QMH101,,SR_Meas_QMS101,,TA_Meas_QMH101,,GenWind,,GenWind,
time,status,PA,status,PR,status,RH,status,SR,status,TA,status,DirAvg,status,SpdAvg,
2016-06-23, 07:30:04,VALID,917.528,VALID,0,INVALID,114.229,VALID,109.483,VALID,18.8658,VALID,13,VALID,0,
2016-06-23, 07:31:04,VALID,917.526,VALID,0,INVALID,114.336,VALID,136.773,VALID,18.9452,VALID,13,VALID,0,
2016-06-23, 07:32:04,VALID,917.524,VALID,0,INVALID,114.351,VALID,252.594,VALID,19.0037,VALID,13,VALID,0,
2016-06-23, 07:33:04,VALID,917.523,VALID,0,INVALID,114.496,VALID,251.627,VALID,19.1583,VALID,13,VALID,0,
2016-06-23, 07:34:04,VALID,917.512,VALID,0,INVALID,114.618,VALID,180.394,VALID,19.3338,VALID,13,VALID,0,
2016-06-23, 07:35:04,VALID,917.484,VALID,0,INVALID,114.748,VALID,151.599,VALID,19.4898,VALID,13,VALID,0,
2016-06-23, 07:36:04,VALID,917.484,VALID,0,INVALID,114.488,VALID,206.932,VALID,19.5678,VALID,19,VALID,0,
2016-06-23, 07:37:04,VALID,917.461,VALID,0,INVALID,114.29,VALID,203.601,VALID,19.7433,VALID,23,VALID,0,
2016-06-23, 07:38:04,VALID,917.472,VALID,0,INVALID,113.764,VALID,148.269,VALID,19.8813,VALID,23,VALID,0,
2016-06-23, 07:39:04,VALID,917.463,VALID,0,INVALID,113.436,VALID,151.277,VALID,20.0358,VALID,23,VALID,0,
2016-06-23, 07:40:04,VALID,917.437,VALID,0,INVALID,112.926,VALID,265.272,VALID,20.1529,VALID,23,VALID,0,
2016-06-23, 07:41:04,VALID,917.431,VALID,0,INVALID,112.118,VALID,217.139,VALID,20.2894,VALID,23,VALID,0,
2016-06-23, 07:42:04,VALID,917.438,VALID,0,INVALID,112.14,VALID,201.452,VALID,20.4845,VALID,5,VALID,0,
2016-06-23, 07:43:04,VALID,917.443,VALID,0,INVALID,111.142,VALID,168.038,VALID,20.5609,VALID,7,VALID,0,
2016-06-23, 07:44:04,VALID,917.43,VALID,0,INVALID,109.716,VALID,166.211,VALID,20.66,VALID,340,VALID,0,
2016-06-23, 07:45:04,VALID,917.438,VALID,0,VALID,104,VALID,138.169,VALID,20.6795,VALID,305,VALID,0,
2016-06-23, 07:46:04,VALID,917.458,VALID,0,VALID,104,VALID,139.888,VALID,20.5804,VALID,305,VALID,0,
2016-06-23, 07:47:04,VALID,917.45,VALID,0,VALID,104,VALID,139.136,VALID,20.4845,VALID,305,VALID,0,
2016-06-23, 07:48:04,VALID,917.467,VALID,0,VALID,104,VALID,145.905,VALID,20.4064,VALID,313,VALID,0,
2016-06-23, 07:49:04,VALID,917.508,VALID,0,VALID,104,VALID,175.129,VALID,20.3854,VALID,345,VALID,0,
2016-06-23, 07:50:04,VALID,917.489,VALID,0,INVALID,109.038,VALID,155.252,VALID,20.4064,VALID,347,VALID,0,
2016-06-23, 07:51:04,VALID,917.486,VALID,0,VALID,104,VALID,170.187,VALID,20.4064,VALID,341,VALID,0,
2016-06-23, 07:52:04,VALID,917.503,VALID,0,VALID,104,VALID,263.875,VALID,20.3854,VALID,341,VALID,0,
2016-06-23, 07:53:04,VALID,917.522,VALID,0,VALID,104,VALID,253.561,VALID,20.4439,INVALID,360,VALID,0,
2016-06-23, 07:54:04,VALID,917.508,VALID,0,VALID,104,VALID,189.204,VALID,20.4845,VALID,336,VALID,0,
2016-06-23, 07:55:04,VALID,917.505,VALID,0,VALID,104,VALID,278.81,VALID,20.4259,VALID,316,VALID,0,
2016-06-23, 07:56:04,VALID,917.517,VALID,0,VALID,104,VALID,287.19,VALID,20.3869,VALID,316,VALID,0,
2016-06-23, 07:57:04,VALID,917.509,VALID,0,VALID,104,VALID,327.91,VALID,20.3659,VALID,312,VALID,0,
2016-06-23, 07:58:04,VALID,917.479,VALID,0,VALID,104,VALID,394.524,VALID,20.4829,VALID,312,VALID,0,
2016-06-23, 07:59:04,VALID,917.463,VALID,0,VALID,104,VALID,345.746,VALID,20.5804,VALID,299,VALID,0,
2016-06-23, 08:00:04,VALID,917.486,VALID,0,VALID,104,VALID,322.538,VALID,20.639,VALID,276,VALID,0,
2016-06-23, 08:01:04,VALID,917.46,VALID,0,VALID,100.423,VALID,373.358,VALID,20.7365,VALID,284,VALID,0,
2016-06-23, 08:02:04,VALID,917.465,VALID,0,VALID,103.762,VALID,390.011,VALID,20.969,VALID,291,VALID,0,
2016-06-23, 08:03:04,VALID,917.453,VALID,0,VALID,91.7097,VALID,295.785,VALID,21.2437,VALID,353,VALID,0,
2016-06-23, 08:04:04,VALID,917.443,VALID,0,VALID,91.8469,VALID,272.363,VALID,21.4388,VALID,297,VALID,0,
2016-06-23, 08:05:04,VALID,917.453,VALID,0,VALID,86.8688,VALID,221.436,VALID,21.3591,VALID,270,VALID,0,
2016-06-23, 08:06:04,VALID,917.516,VALID,0,VALID,90.6805,VALID,207.576,VALID,21.3201,VALID,270,VALID,0,
2016-06-23, 08:07:04,VALID,917.501,VALID,0,VALID,84.3379,VALID,188.344,VALID,21.3591,VALID,283,VALID,0,
2016-06-23, 08:08:04,VALID,917.528,VALID,0,VALID,85.771,VALID,237.338,VALID,21.5152,VALID,284,VALID,0,
2016-06-23, 08:09:04,VALID,917.547,VALID,0,VALID,86.6477,VALID,281.066,VALID,21.5737,VALID,284,VALID,0,
2016-06-23, 08:10:04,VALID,917.538,VALID,0,VALID,81.2504,VALID,312.546,VALID,21.5932,VALID,284,VALID,0,
2016-06-23, 08:11:04,VALID,917.531,VALID,0,VALID,81.6925,VALID,313.836,VALID,21.6908,VALID,299,VALID,0,
2016-06-23, 08:12:04,VALID,917.545,VALID,0,VALID,82.8055,VALID,364.655,VALID,21.964,VALID,312,VALID,0,
2016-06-23, 08:13:04,VALID,917.561,VALID,0,VALID,81.258,VALID,362.399,VALID,22.2762,VALID,313,VALID,0,
2016-06-23, 08:14:04,VALID,917.551,VALID,0,VALID,77.4082,VALID,362.399,VALID,22.5494,VALID,27,VALID,0,
2016-06-23, 08:15:04,VALID,917.571,VALID,0,VALID,75.2202,VALID,364.87,VALID,22.6665,VALID,27,VALID,0,
2016-06-23, 08:16:04,VALID,917.616,VALID,0,VALID,76.2418,VALID,348.754,VALID,22.8209,VALID,28,VALID,0,
2016-06-23, 08:17:04,VALID,917.612,VALID,0,VALID,74.5265,VALID,266.776,VALID,23.0746,VALID,17,VALID,0,
2016-06-23, 08:18:04,VALID,917.592,VALID,0,VALID,73.9166,VALID,158.368,VALID,23.2715,VALID,358,VALID,0,
2016-06-23, 08:19:04,VALID,917.607,VALID,0,VALID,68.9157,VALID,348.969,VALID,23.2307,VALID,23,VALID,0,
2016-06-23, 08:20:04,VALID,917.597,VALID,0,VALID,72.1404,VALID,370.994,VALID,23.3283,VALID,22,VALID,0,
2016-06-23, 08:21:04,VALID,917.584,VALID,0,VALID,70.0363,VALID,369.275,VALID,23.4454,VALID,56,VALID,0,
2016-06-23, 08:22:04,VALID,917.639,VALID,0,VALID,69.1444,VALID,373.573,VALID,23.4437,VALID,37,VALID,0,
2016-06-23, 08:23:04,VALID,917.649,VALID,0,VALID,69.6399,VALID,378.837,VALID,23.4863,VALID,30,VALID,0,
2016-06-23, 08:24:04,VALID,917.632,VALID,0,VALID,66.0493,VALID,392.053,VALID,23.5235,VALID,345,VALID,0,
2016-06-23, 08:25:04,VALID,917.628,VALID,0,VALID,66.4686,VALID,367.341,VALID,23.662,INVALID,360,VALID,0,
2016-06-23, 08:26:04,VALID,917.63,VALID,0,VALID,66.0798,VALID,227.238,VALID,23.7968,VALID,20,VALID,0,
2016-06-23, 08:27:04,VALID,917.634,VALID,0,VALID,64.9363,VALID,291.488,VALID,23.9335,VALID,22,VALID,0,
2016-06-23, 08:28:04,VALID,917.662,VALID,0,VALID,67.6502,VALID,272.363,VALID,24.0329,VALID,8,VALID,0,
2016-06-23, 08:29:04,VALID,917.658,VALID,0,VALID,65.691,VALID,381.416,VALID,24.0311,VALID,3,VALID,0,
2016-06-23, 08:30:04,VALID,917.64,VALID,0,VALID,64.8143,VALID,392.268,VALID,24.111,VALID,16,VALID,0,
2016-06-23, 08:31:04,VALID,917.669,VALID,0,VALID,63.0533,VALID,394.094,VALID,24.1873,VALID,31,VALID,0,
2016-06-23, 08:32:04,VALID,917.699,VALID,0,VALID,62.9542,VALID,396.35,VALID,24.3044,VALID,34,VALID,0,
2016-06-23, 08:33:04,VALID,917.718,VALID,0,VALID,66.8116,VALID,398.822,VALID,24.5192,INVALID,360,VALID,0,
2016-06-23, 08:34:04,VALID,917.726,VALID,0,VALID,64.1663,VALID,401.615,VALID,24.5582,VALID,360,VALID,0,
2016-06-23, 08:35:04,VALID,917.752,VALID,0,VALID,67.3376,VALID,404.409,VALID,24.3611,VALID,9,VALID,0,
2016-06-23, 08:36:04,VALID,917.776,VALID,0,VALID,69.3045,VALID,406.772,VALID,24.2635,VALID,11,VALID,0,
2016-06-23, 08:37:04,VALID,917.79,VALID,0,VALID,63.2972,VALID,408.599,VALID,24.0896,VALID,20,VALID,0,
2016-06-23, 08:38:04,VALID,917.815,VALID,0,VALID,66.4838,VALID,411.5,VALID,23.992,VALID,55,VALID,0,
2016-06-23, 08:39:04,VALID,917.838,VALID,0,VALID,67.5892,VALID,414.293,VALID,24.0524,VALID,353,VALID,1.07891,
2016-06-23, 08:40:04,VALID,917.844,VALID,0,VALID,66.7964,VALID,417.087,VALID,24.0329,VALID,2,VALID,1.56094,
2016-06-23, 08:41:04,VALID,917.854,VALID,0,VALID,67.1166,VALID,419.45,VALID,23.992,VALID,10,VALID,0.0195313,
2016-06-23, 08:42:04,VALID,917.873,VALID,0,VALID,67.4749,VALID,421.921,VALID,23.9939,VALID,19,VALID,0.276563,
2016-06-23, 08:43:04,VALID,917.91,VALID,0,VALID,69.0072,VALID,425.145,VALID,24.0115,VALID,32,VALID,0,
2016-06-23, 08:44:04,VALID,917.916,VALID,0,VALID,70.0058,VALID,427.293,VALID,24.1287,VALID,10,VALID,0.552734,
2016-06-23, 08:45:04,VALID,917.97,VALID,0,VALID,65.4623,VALID,402.689,VALID,24.0896,INVALID,360,VALID,0.2,
2016-06-23, 08:46:04,VALID,917.976,VALID,0,VALID,67.7341,VALID,403.119,VALID,24.0701,INVALID,360,VALID,0,
2016-06-23, 08:47:04,VALID,917.986,VALID,0,VALID,66.682,VALID,420.095,VALID,24.0115,VALID,307,VALID,0,
2016-06-23, 08:48:04,VALID,918.018,VALID,0,VALID,64.5093,VALID,436.963,VALID,23.9725,VALID,304,VALID,0,
2016-06-23, 08:49:04,VALID,918.026,VALID,0,VALID,68.6107,VALID,439.864,VALID,24.0506,VALID,11,VALID,0,
2016-06-23, 08:50:04,VALID,918.036,VALID,0,VALID,64.9515,VALID,441.261,VALID,24.1092,VALID,340,VALID,1.45703,
2016-06-23, 08:51:04,VALID,918.047,VALID,0,VALID,67.2538,VALID,445.344,VALID,24.0292,VALID,20,VALID,0.897266,
2016-06-23, 08:52:04,VALID,918.05,VALID,0,VALID,67.6426,VALID,448.244,VALID,24.1659,VALID,28,VALID,0,
2016-06-23, 08:53:04,VALID,918.061,VALID,0,VALID,64.6085,VALID,451.897,VALID,24.2849,VALID,292,VALID,0.00117188,
2016-06-23, 08:54:04,VALID,918.069,VALID,0,VALID,66.3771,VALID,454.476,VALID,24.2849,VALID,293,VALID,0,
2016-06-23, 08:55:04,VALID,918.03,VALID,0,VALID,68.0466,VALID,456.517,VALID,24.2635,VALID,300,VALID,0,
2016-06-23, 08:56:04,VALID,918.05,VALID,0,VALID,64.8524,VALID,457.27,VALID,24.3221,VALID,2,VALID,0,
2016-06-23, 08:57:04,VALID,918.046,VALID,0,VALID,66.217,VALID,458.022,VALID,24.4411,VALID,37,VALID,0,
2016-06-23, 08:58:04,VALID,918.022,VALID,0,VALID,65.1116,VALID,460.815,VALID,24.6149,VALID,345,VALID,0,
2016-06-23, 08:59:04,VALID,918.025,VALID,0,VALID,64.6008,VALID,462.856,VALID,24.7516,VALID,13,VALID,0,
2016-06-23, 09:00:04,VALID,918.055,VALID,0,VALID,64.5093,VALID,465.113,VALID,24.8102,VALID,13,VALID,0,
2016-06-23, 09:01:04,VALID,918.045,VALID,0,VALID,64.2806,VALID,466.724,VALID,24.8883,VALID,351,VALID,0,
2016-06-23, 09:02:04,VALID,918.047,VALID,0,VALID,62.6874,VALID,469.733,VALID,24.9274,VALID,263,VALID,0,
2016-06-23, 09:04:04,VALID,918.078,VALID,0,VALID,66.9717,VALID,474.89,VALID,25.0445,VALID,4,VALID,0,
2016-06-23, 09:05:04,VALID,918.088,VALID,0,VALID,63.099,VALID,478.65,VALID,24.8864,VALID,28,VALID,1.06445,
2016-06-23, 09:06:04,VALID,918.097,VALID,0,VALID,64.6237,VALID,482.518,VALID,24.8864,VALID,12,VALID,0.15625,
2016-06-23, 09:07:04,VALID,918.101,VALID,0,VALID,65.7596,VALID,483.485,VALID,25.0055,VALID,35,VALID,0,
2016-06-23, 09:08:04,VALID,918.088,VALID,0,VALID,65.2869,VALID,486.601,VALID,25.1012,VALID,22,VALID,0,
2016-06-23, 09:09:04,VALID,918.067,VALID,0,VALID,64.8981,VALID,488.857,VALID,25.1988,VALID,7,VALID,0.00273437,
2016-06-23, 09:10:04,VALID,918.084,VALID,0,VALID,61.9021,VALID,491.328,VALID,25.1598,VALID,3,VALID,0.546094,
2016-06-23, 09:11:04,VALID,918.093,VALID,0,VALID,63.8004,VALID,494.122,VALID,25.0621,VALID,6,VALID,0,
2016-06-23, 09:12:04,VALID,918.078,VALID,0,VALID,66.4762,VALID,497.13,VALID,25.0817,VALID,6,VALID,0,
2016-06-23, 09:13:04,VALID,918.1,VALID,0,VALID,64.5093,VALID,499.172,VALID,25.064,VALID,300,VALID,0,
2016-06-23, 09:14:04,VALID,918.102,VALID,0,VALID,65.6757,VALID,501.428,VALID,25.0055,VALID,340,VALID,0,
2016-06-23, 09:15:04,VALID,918.13,VALID,0,VALID,63.8004,VALID,505.403,VALID,25.0836,VALID,305,VALID,0,
2016-06-23, 09:16:04,VALID,918.128,VALID,0,VALID,64.517,VALID,508.412,VALID,25.1226,VALID,24,VALID,0,
2016-06-23, 09:17:04,VALID,918.15,VALID,0,VALID,64.8372,VALID,512.387,VALID,25.2574,VALID,12,VALID,0,
2016-06-23, 09:18:04,VALID,918.148,VALID,0,VALID,63.6555,VALID,513.246,VALID,25.2984,VALID,4,VALID,0,
2016-06-23, 09:19:04,VALID,918.142,VALID,0,VALID,64.8219,VALID,515.825,VALID,25.316,VALID,320,VALID,0,
2016-06-23, 09:20:04,VALID,918.134,VALID,0,VALID,62.108,VALID,518.726,VALID,25.2379,VALID,309,VALID,0,
2016-06-23, 09:21:04,VALID,918.108,VALID,0,VALID,65.2183,VALID,523.346,VALID,25.1617,VALID,27,VALID,0,
2016-06-23, 09:22:04,VALID,918.085,VALID,0,VALID,63.2667,VALID,527.106,VALID,25.0836,VALID,10,VALID,1.13477,
2016-06-23, 09:23:04,VALID,918.048,VALID,0,VALID,65.6452,VALID,531.619,VALID,24.9274,VALID,346,VALID,0,
2016-06-23, 09:24:04,VALID,918.062,VALID,0,VALID,65.6681,VALID,537.206,VALID,24.7497,VALID,12,VALID,1.22148,
2016-06-23, 09:25:04,VALID,918.054,VALID,0,VALID,66.1331,VALID,543.76,VALID,24.7497,VALID,13,VALID,0,
2016-06-23, 09:26:04,VALID,918.035,VALID,0,VALID,66.4609,VALID,547.735,VALID,24.8474,VALID,13,VALID,0,
2016-06-23, 09:27:04,VALID,918.01,VALID,0,VALID,65.4013,VALID,531.511,VALID,25.0817,VALID,353,VALID,0.165234,
2016-06-23, 09:28:04,VALID,917.967,VALID,0,VALID,63.5793,VALID,507.767,VALID,25.1617,VALID,4,VALID,0.485938,
2016-06-23, 09:29:04,VALID,918.035,VALID,0,VALID,64.9972,VALID,472.849,VALID,25.0231,VALID,321,VALID,0.0632813,
2016-06-23, 09:30:04,VALID,918.021,VALID,0,VALID,65.2869,VALID,527.536,VALID,24.9255,INVALID,360,VALID,0.00585938,
2016-06-23, 09:31:04,VALID,918.013,VALID,0,VALID,66.987,VALID,556.33,VALID,24.9059,VALID,26,VALID,0,
2016-06-23, 09:32:04,VALID,918.059,VALID,0,VALID,65.447,VALID,579.967,VALID,24.9469,VALID,298,VALID,0,
2016-06-23, 09:33:04,VALID,918.043,VALID,0,VALID,66.1179,VALID,550.099,VALID,25.0231,VALID,36,VALID,0,
2016-06-23, 09:34:04,VALID,918.068,VALID,0,VALID,65.691,VALID,485.312,VALID,25.0817,VALID,3,VALID,0.517187,
2016-06-23, 09:35:04,VALID,918.086,VALID,0,VALID,65.813,VALID,398.714,VALID,25.0231,VALID,25,VALID,0,
2016-06-23, 09:36:04,VALID,918.1,VALID,0,VALID,66.9336,VALID,385.284,VALID,25.0621,VALID,10,VALID,0,
2016-06-23, 09:37:04,VALID,918.048,VALID,0,VALID,65.7138,VALID,392.16,VALID,25.0621,VALID,20,VALID,0.113672,
2016-06-23, 09:38:04,VALID,918.075,VALID,0,VALID,63.9986,VALID,353.911,VALID,24.984,VALID,17,VALID,0.692969,
2016-06-23, 09:39:04,VALID,918.077,VALID,0,VALID,64.1663,VALID,312.761,VALID,24.8474,VALID,26,VALID,1.33867,
2016-06-23, 09:40:04,VALID,918.079,VALID,0,VALID,66.3085,VALID,304.166,VALID,24.7302,VALID,17,VALID,0.651563,
2016-06-23, 09:41:04,VALID,918.093,VALID,0,VALID,67.8179,VALID,325.976,VALID,24.6912,VALID,46,VALID,1.76445,
2016-06-23, 09:42:04,VALID,918.085,VALID,0,VALID,67.4749,VALID,413.648,VALID,24.7107,VALID,27,VALID,0,
2016-06-23, 09:43:04,VALID,918.086,VALID,0,VALID,66.8116,VALID,376.044,VALID,24.7497,VALID,18,VALID,0,
2016-06-23, 09:44:04,VALID,918.013,VALID,0,VALID,67.7264,VALID,404.731,VALID,24.6912,VALID,19,VALID,0,
2016-06-23, 09:45:04,VALID,918.06,VALID,0,VALID,67.6273,VALID,407.739,VALID,24.5935,VALID,31,VALID,0,
2016-06-23, 09:46:04,VALID,918.061,VALID,0,VALID,68.1991,VALID,411.929,VALID,24.5935,VALID,26,VALID,0,
2016-06-23, 09:47:04,VALID,918.024,VALID,0,VALID,67.0479,VALID,390.226,VALID,24.7107,VALID,38,VALID,0,
2016-06-23, 09:48:04,VALID,918.001,VALID,0,VALID,67.3757,VALID,300.191,VALID,24.8474,VALID,30,VALID,0,
2016-06-23, 09:49:04,VALID,917.995,VALID,0,VALID,66.9717,VALID,509.271,VALID,24.9255,VALID,21,VALID,0,
2016-06-23, 09:50:04,VALID,918.005,VALID,0,VALID,66.9946,VALID,331.778,VALID,25.0231,VALID,359,VALID,0,
2016-06-23, 09:51:04,VALID,918.01,VALID,0,VALID,67.7188,VALID,382.705,VALID,25.0407,VALID,50,VALID,0,
2016-06-23, 09:52:04,VALID,917.98,VALID,0,VALID,66.8345,VALID,447.922,VALID,25.1598,VALID,24,VALID,0,
2016-06-23, 09:53:04,VALID,918.028,VALID,0,VALID,66.3313,VALID,488.213,VALID,25.1598,VALID,39,VALID,0,
2016-06-23, 09:54:04,VALID,917.962,VALID,0,VALID,66.7659,VALID,400.863,VALID,25.1988,VALID,12,VALID,0,
2016-06-23, 09:55:04,VALID,917.95,VALID,0,VALID,68.7327,VALID,362.506,VALID,25.2555,VALID,40,VALID,0,
2016-06-23, 09:56:04,VALID,917.965,VALID,0,VALID,66.1636,VALID,341.77,VALID,25.2769,VALID,25,VALID,0,
2016-06-23, 09:57:04,VALID,917.91,VALID,0,VALID,68.0695,VALID,430.946,VALID,25.2183,VALID,20,VALID,0.685938,
2016-06-23, 09:58:04,VALID,917.895,VALID,0,VALID,66.2627,VALID,476.072,VALID,25.1207,VALID,4,VALID,0.0105469,
2016-06-23, 09:59:04,VALID,917.868,VALID,0,VALID,67.6883,VALID,607.365,VALID,25.1383,VALID,1,VALID,0,
2016-06-23, 10:00:04,VALID,917.909,VALID,0,VALID,67.9094,VALID,486.064,VALID,25.3336,VALID,27,VALID,0,
2016-06-23, 10:01:04,VALID,917.87,VALID,0,VALID,67.0937,VALID,414.723,VALID,25.4898,VALID,39,VALID,0,
2016-06-23, 10:02:04,VALID,917.88,VALID,0,VALID,65.8358,VALID,394.739,VALID,25.6284,VALID,26,VALID,0,
2016-06-23, 10:03:04,VALID,917.87,VALID,0,VALID,65.1345,VALID,483.27,VALID,25.646,VALID,31,VALID,0,
2016-06-23, 10:04:04,VALID,917.874,VALID,0,VALID,65.8206,VALID,382.276,VALID,25.646,VALID,7,VALID,0.271484,
2016-06-23, 10:05:04,VALID,917.834,VALID,0,VALID,65.8739,VALID,334.464,VALID,25.5679,VALID,23,VALID,0.346875,
2016-06-23, 10:06:04,VALID,917.839,VALID,0,VALID,64.9896,VALID,337.473,VALID,25.4722,VALID,34,VALID,0.279297,
2016-06-23, 10:07:04,VALID,917.831,VALID,0,VALID,65.5309,VALID,374.003,VALID,25.316,VALID,37,VALID,0.307422,
2016-06-23, 10:08:04,VALID,917.853,VALID,0,VALID,65.4623,VALID,360.25,VALID,25.0798,VALID,31,VALID,0.732422,
2016-06-23, 10:09:04,VALID,917.823,VALID,0,VALID,64.6618,VALID,405.375,VALID,24.9431,VALID,12,VALID,0,
2016-06-23, 10:10:04,VALID,917.821,VALID,0,VALID,66.6287,VALID,433.418,VALID,24.8083,VALID,31,VALID,1.23047,
2016-06-23, 10:11:04,VALID,917.798,VALID,0,VALID,66.6363,VALID,495.733,VALID,24.7693,VALID,12,VALID,0.222266,
2016-06-23, 10:12:04,VALID,917.782,VALID,0,VALID,67.8103,VALID,430.302,VALID,24.7693,VALID,31,VALID,0,
2016-06-23, 10:13:04,VALID,917.79,VALID,0,VALID,68.1838,VALID,341.555,VALID,24.8259,VALID,16,VALID,0.261328,
2016-06-23, 10:14:04,VALID,917.736,VALID,0,VALID,64.3035,VALID,332.745,VALID,24.7869,VALID,18,VALID,0.210156,
2016-06-23, 10:15:04,VALID,917.749,VALID,0,VALID,67.8865,VALID,294.389,VALID,24.6307,VALID,28,VALID,0,
2016-06-23, 10:16:04,VALID,917.753,VALID,0,VALID,68.1762,VALID,331.886,VALID,24.5935,VALID,29,VALID,0,
2016-06-23, 10:17:04,VALID,917.745,VALID,0,VALID,67.1775,VALID,407.524,VALID,24.6716,VALID,47,VALID,0,
2016-06-23, 10:18:04,VALID,917.724,VALID,0,VALID,68.6489,VALID,421.814,VALID,24.6716,VALID,9,VALID,0,
2016-06-23, 10:19:04,VALID,917.747,VALID,0,VALID,66.2856,VALID,469.303,VALID,24.7516,VALID,28,VALID,0.163672,
2016-06-23, 10:20:04,VALID,917.737,VALID,0,VALID,67.0479,VALID,626.167,VALID,24.7888,VALID,48,VALID,0,
2016-06-23, 10:21:04,VALID,917.72,VALID,0,VALID,63.7013,VALID,690.524,VALID,24.9274,VALID,9,VALID,0.00429688,
2016-06-23, 10:22:04,VALID,917.721,VALID,0,VALID,66.1941,VALID,683.755,VALID,25.1031,VALID,32,VALID,0,
2016-06-23, 10:23:04,VALID,917.751,VALID,0,VALID,61.7878,VALID,675.483,VALID,25.2398,VALID,315,VALID,0,
2016-06-23, 10:24:04,VALID,917.771,VALID,0,VALID,64.7076,VALID,671.937,VALID,25.2203,VALID,311,VALID,0,
2016-06-23, 10:25:04,VALID,917.771,VALID,0,VALID,64.578,VALID,669.573,VALID,25.2984,VALID,1,VALID,0,
2016-06-23, 10:26:04,VALID,917.764,VALID,0,VALID,64.5703,VALID,666.887,VALID,25.4136,VALID,8,VALID,0.0289063,
2016-06-23, 10:27:04,VALID,917.755,VALID,0,VALID,62.7941,VALID,666.35,VALID,25.5327,VALID,28,VALID,0.430078,
2016-06-23, 10:28:04,VALID,917.741,VALID,0,VALID,62.169,VALID,664.953,VALID,25.6304,VALID,350,VALID,0,
2016-06-23, 10:29:04,VALID,917.728,VALID,0,VALID,62.39,VALID,668.714,VALID,25.6304,VALID,292,VALID,0,
2016-06-23, 10:30:04,VALID,917.736,VALID,0,VALID,64.1358,VALID,671.4,VALID,25.6499,VALID,18,VALID,0,
2016-06-23, 10:31:04,VALID,917.712,VALID,0,VALID,62.6874,VALID,675.053,VALID,25.728,VALID,352,VALID,0,
2016-06-23, 10:32:04,VALID,917.712,VALID,0,VALID,62.1995,VALID,675.805,VALID,25.6694,VALID,323,VALID,0,
2016-06-23, 10:33:04,VALID,917.693,VALID,0,VALID,61.3609,VALID,676.879,VALID,25.7066,VALID,23,VALID,0.118359,
2016-06-23, 10:34:04,VALID,917.711,VALID,0,VALID,60.6671,VALID,679.78,VALID,25.7866,VALID,43,VALID,0.789063,
2016-06-23, 10:35:04,VALID,917.711,VALID,0,VALID,59.9277,VALID,677.739,VALID,25.8823,VALID,360,VALID,0,
2016-06-23, 10:36:04,VALID,917.691,VALID,0,VALID,59.0052,VALID,680.747,VALID,25.98,VALID,288,VALID,0,
2016-06-23, 10:37:04,VALID,917.632,VALID,0,VALID,59.7752,VALID,680.102,VALID,25.8823,VALID,357,VALID,0.142969,
2016-06-23, 10:38:04,VALID,917.626,VALID,0,VALID,60.6824,VALID,676.879,VALID,25.9019,VALID,332,VALID,0,
2016-06-23, 10:39:04,VALID,917.645,VALID,0,VALID,60.9949,VALID,683.755,VALID,25.9995,VALID,334,VALID,0,
2016-06-23, 10:40:04,VALID,917.638,VALID,0,VALID,59.9887,VALID,675.805,VALID,26.1362,VALID,338,VALID,0,
2016-06-23, 10:41:04,VALID,917.591,VALID,0,VALID,63.2972,VALID,674.193,VALID,26.2144,VALID,21,VALID,0,
2016-06-23, 10:42:04,VALID,917.565,VALID,0,VALID,61.7649,VALID,676.557,VALID,26.2339,VALID,45,VALID,0,
2016-06-23, 10:43:04,VALID,917.578,VALID,0,VALID,61.7649,VALID,692.888,VALID,26.2534,VALID,42,VALID,0,
2016-06-23, 10:44:04,VALID,917.553,VALID,0,VALID,61.1169,VALID,694.07,VALID,26.3511,VALID,32,VALID,0,
2016-06-23, 10:45:04,VALID,917.556,VALID,0,VALID,62.6645,VALID,694.177,VALID,26.4683,VALID,357,VALID,0.00429688,
2016-06-23, 10:46:04,VALID,917.547,VALID,0,VALID,58.7079,VALID,701.698,VALID,26.4488,VALID,314,VALID,0,
2016-06-23, 10:47:04,VALID,917.536,VALID,0,VALID,61.1855,VALID,697.723,VALID,26.3902,VALID,32,VALID,0,
2016-06-23, 10:48:04,VALID,917.544,VALID,0,VALID,61.3837,VALID,703.31,VALID,26.3902,INVALID,360,VALID,0,
2016-06-23, 10:49:04,VALID,917.532,VALID,0,VALID,58.9443,VALID,701.376,VALID,26.3491,VALID,320,VALID,0,
2016-06-23, 10:50:04,VALID,917.553,VALID,0,VALID,62.6569,VALID,699.872,VALID,26.4097,VALID,18,VALID,0,
2016-06-23, 10:51:04,VALID,917.531,VALID,0,VALID,61.0254,VALID,692.673,VALID,26.4858,VALID,37,VALID,0,
2016-06-23, 10:52:04,VALID,917.509,VALID,0,VALID,60.3698,VALID,687.516,VALID,26.5054,VALID,27,VALID,0,
2016-06-23, 10:53:04,VALID,917.536,VALID,0,VALID,60.8425,VALID,692.028,VALID,26.5249,VALID,1,VALID,0.00585938,
2016-06-23, 10:54:04,VALID,917.497,VALID,0,VALID,60.164,VALID,680.102,VALID,26.5249,VALID,10,VALID,0,
2016-06-23, 10:55:04,VALID,917.493,VALID,0,VALID,62.108,VALID,673.119,VALID,26.5249,VALID,14,VALID,0,
2016-06-23, 10:56:04,VALID,917.47,VALID,0,VALID,58.6241,VALID,678.706,VALID,26.5054,VALID,36,VALID,0.0289063,
2016-06-23, 10:57:04,VALID,917.424,VALID,0,VALID,61.1245,VALID,693.64,VALID,26.5835,VALID,16,VALID,0,
2016-06-23, 10:58:04,VALID,917.429,VALID,0,VALID,61.4371,VALID,693.747,VALID,26.7202,VALID,22,VALID,0,
2016-06-23, 10:59:04,VALID,917.411,VALID,0,VALID,56.8326,VALID,685.367,VALID,26.8374,VALID,10,VALID,0,
2016-06-23, 11:00:04,VALID,917.379,VALID,0,VALID,58.0904,VALID,679.35,VALID,26.7593,VALID,341,VALID,0,
2016-06-23, 11:01:04,VALID,917.37,VALID,0,VALID,61.6048,VALID,708.037,VALID,26.6987,VALID,325,VALID,0,
2016-06-23, 11:02:04,VALID,917.371,VALID,0,VALID,61.8488,VALID,712.979,VALID,26.8374,VALID,353,VALID,0,
2016-06-23, 11:03:04,VALID,917.349,VALID,0,VALID,58.6393,VALID,709.649,VALID,26.9958,VALID,338,VALID,0,
2016-06-23, 11:04:04,VALID,917.338,VALID,0,VALID,60.2707,VALID,706.963,VALID,26.9937,VALID,355,VALID,0,
2016-06-23, 11:05:04,VALID,917.31,VALID,0,VALID,61.0178,VALID,703.954,VALID,27.1521,VALID,16,VALID,0.527344,
2016-06-23, 11:06:04,VALID,917.31,VALID,0,VALID,60.1488,VALID,709.971,VALID,27.3475,VALID,3,VALID,0.415625,
2016-06-23, 11:07:04,VALID,917.297,VALID,0,VALID,56.3828,VALID,693.747,VALID,27.367,VALID,341,VALID,1.18242,
2016-06-23, 11:08:04,VALID,917.307,VALID,0,VALID,57.1604,VALID,708.037,VALID,27.1325,VALID,10,VALID,2.44648,
2016-06-23, 11:09:04,VALID,917.271,VALID,0,VALID,58.0294,VALID,711.798,VALID,27.0153,VALID,20,VALID,2.19297,
2016-06-23, 11:10:04,VALID,917.287,VALID,0,VALID,58.4868,VALID,712.872,VALID,26.9176,VALID,37,VALID,0.919141,
2016-06-23, 11:11:04,VALID,917.327,VALID,0,VALID,59.6609,VALID,706.64,VALID,26.9156,VALID,261,VALID,0,
2016-06-23, 11:12:04,VALID,917.269,VALID,0,VALID,61.1627,VALID,708.252,VALID,27.0544,VALID,311,VALID,0,
2016-06-23, 11:13:04,VALID,917.258,VALID,0,VALID,59.1882,VALID,704.492,VALID,27.1305,VALID,296,VALID,0,
2016-06-23, 11:14:04,VALID,917.284,VALID,0,VALID,59.5999,VALID,702.773,VALID,27.0914,VALID,4,VALID,0.707422,
2016-06-23, 11:15:04,VALID,917.272,VALID,0,VALID,59.8133,VALID,714.484,VALID,27.0719,VALID,2,VALID,0,